Wind_Speed
10 11 11 12 13 14 14 17 16 21 20 20 22 23 22 20 22 28 33 37 43 47 52 56 58 61 63 64 64 64 67 70 74 74 73 71 68 68 70 72 72 71 68 65
11 11 11 12 13 14 15 17 17 20 23 22 22 20 16 21 27 33 40 45 48 53 57 60 62 64 65 64 66 69 73 75 75 75 69 66 69 70 69 65 62 59 57 55
11 12 13 13 14 16 17 18 20 20 20 21 20 20 26 31 36 42 46 49 54 58 61 62 63 64 64 67 71 73 74 73 69 66 66 68 69 64 58 57 54 50 44 39
12 13 14 14 17 18 19 20 18 17 17 13 19 25 30 35 40 45 49 54 58 61 63 64 64 65 68 71 73 72 70 66 66 66 67 64 58 56 52 49 42 36 39 41
15 15 16 16 18 18 18 17 15 11 15 20 25 31 36 41 45 50 54 58 62 63 64 65 67 69 71 72 72 70 66 65 65 64 58 53 52 49 44 35 35 38 41 44
16 18 18 15 17 17 14 12 13 15 20 26 30 36 42 46 51 55 59 63 65 66 66 68 71 74 74 72 70 66 64 63 58 53 49 49 46 40 31 34 37 40 43 42
17 16 15 15 14 13 11 12 16 21 26 31 37 41 46 51 56 59 62 64 66 67 68 72 76 74 70 67 65 62 58 52 47 46 46 43 35 30 32 36 39 43 39 35
17 16 15 15 15 14 14 17 22 26 30 37 43 48 52 57 60 62 63 65 67 69 73 75 73 72 70 66 59 53 47 44 43 41 39 32 29 31 37 39 42 37 32 29
17 17 18 16 14 16 20 24 27 31 36 42 48 52 57 60 60 62 64 67 70 74 75 72 72 70 65 53 46 44 42 40 37 35 31 29 31 35 38 42 36 32 28 23
19 20 18 16 18 21 25 27 29 35 42 47 50 54 57 58 60 62 65 70 75 75 73 70 68 58 47 43 40 39 37 35 33 30 27 29 33 38 41 37 31 28 24 25
19 18 18 20 22 24 26 30 36 41 46 50 54 55 56 58 60 64 69 74 74 72 70 65 52 43 40 37 36 33 35 31 28 24 26 29 35 40 37 32 27 23 25 25
20 20 20 23 23 25 30 35 40 45 49 53 52 53 55 58 63 68 71 73 72 69 61 49 42 38 36 35 33 34 32 29 23 23 26 30 36 35 34 29 26 27 25 21
21 22 23 22 24 30 34 39 44 48 50 50 51 52 55 61 66 67 71 71 65 57 49 41 38 37 33 31 30 31 29 24 22 24 26 33 35 30 23 24 27 23 21 19
22 22 22 26 30 33 38 42 46 47 48 49 49 53 58 64 65 68 68 61 53 48 41 39 40 36 28 29 28 29 27 21 22 25 27 35 33 26 21 21 20 19 21 21
24 22 26 29 32 36 40 43 44 45 46 46 50 56 62 63 64 65 60 54 46 40 40 41 38 28 25 26 26 28 23 20 23 25 29 35 30 22 21 21 16 17 21 19
21 23 25 29 34 37 39 41 42 43 44 48 53 58 62 63 63 59 53 47 42 39 39 38 29 22 25 24 25 25 21 19 22 26 30 33 25 21 21 18 14 16 15 15
21 23 28 32 34 36 37 39 40 41 45 50 55 60 61 60 56 51 49 44 40 38 33 29 25 23 21 22 23 24 20 20 22 28 32 29 22 20 19 15 13 15 12 13
21 25 28 30 34 34 36 38 39 43 47 52 57 60 61 55 48 46 46 44 37 32 27 24 24 23 23 24 23 23 20 19 23 28 31 25 20 20 17 14 12 15 12 10
23 25 27 31 32 33 35 37 42 45 49 55 57 59 57 49 40 41 42 41 34 27 23 21 22 24 26 25 22 23 20 19 23 27 28 21 20 19 17 13 13 15 9 8
23 25 29 31 31 34 35 39 42 46 51 56 58 61 54 41 38 39 38 37 32 24 20 20 22 27 29 23 20 23 19 18 22 26 23 19 19 19 15 12 12 13 7 8
24 27 29 29 32 34 37 40 43 47 52 56 60 59 49 39 38 40 38 34 31 25 22 22 24 28 26 23 21 21 17 18 22 23 19 18 19 16 13 12 12 9 9 11
25 28 27 29 31 35 38 40 44 48 53 56 60 55 45 39 39 40 39 35 31 28 26 27 28 28 24 23 23 18 15 18 21 19 17 17 16 14 12 12 11 9 11 14
25 25 26 28 32 35 38 42 45 49 54 57 59 51 43 38 38 38 38 38 34 31 30 30 29 26 24 21 16 12 14 18 18 15 16 16 14 12 11 11 11 11 13 14
23 24 26 29 32 35 38 41 45 50 54 59 58 49 41 38 38 37 38 38 35 33 32 27 22 17 13 10 8 11 14 17 15 14 15 14 12 10 12 11 10 12 12 11
22 23 26 30 33 35 38 42 46 49 55 59 53 46 39 38 37 36 37 36 35 32 25 20 13 9 6 6 9 12 15 14 13 14 14 13 10 11 11 11 11 11 10 13
19 24 27 30 33 35 38 42 45 49 56 56 50 44 39 37 35 35 36 34 34 25 20 13 11 9 8 9 11 13 14 12 11 13 12 12 9 10 10 11 11 12 13 16
21 25 28 31 32 35 38 42 45 49 56 54 47 40 36 35 35 35 34 34 28 18 13 12 11 10 10 11 13 13 12 10 12 13 11 10 8 9 9 10 10 10 11 11
Wind_Direction
225 224 226 227 230 238 241 245 255 266 281 294 296 293 298 301 306 307 305 308 308 309 312 313 312 310 309 307 305 303 303 302 301 300 301 304 303 301 301 300 298 296 295 295
231 238 234 232 237 245 250 261 273 281 290 291 287 292 293 303 305 305 306 310 311 312 313 312 311 309 306 304 303 304 304 302 301 303 306 304 305 305 304 302 302 301 299 298
229 237 239 242 250 258 264 269 276 280 280 282 292 302 306 309 309 308 311 312 313 314 313 313 311 309 306 305 305 303 301 302 307 307 306 308 308 308 305 305 304 304 304 303
233 243 252 261 266 270 273 276 277 280 281 285 290 298 302 303 306 309 310 312 314 314 314 313 311 308 307 306 303 302 306 310 308 309 310 311 309 308 308 307 306 308 309 307
259 263 266 273 274 274 274 275 275 267 286 292 299 306 307 310 310 311 311 313 314 315 314 312 310 309 307 305 305 309 311 309 310 311 310 309 309 309 309 309 311 310 308 307
275 279 281 277 275 277 279 259 266 288 291 295 301 306 312 313 311 312 313 314 315 314 313 312 311 309 306 307 311 312 311 312 311 309 310 311 312 311 310 312 313 311 311 310
280 281 285 278 275 265 242 260 277 285 293 302 307 310 310 310 313 313 315 315 315 314 314 313 310 306 310 313 314 313 311 309 310 311 312 313 314 313 313 314 315 315 315 313
280 282 272 269 260 248 262 277 283 292 300 310 311 309 312 313 313 314 316 316 316 315 313 309 308 313 315 315 315 312 311 312 312 312 313 313 314 314 316 318 319 318 318 316
273 269 268 258 245 257 268 278 290 300 306 306 308 311 312 313 315 317 317 317 317 314 310 311 314 315 317 316 315 314 315 312 312 313 313 315 314 315 319 321 322 321 321 322
262 264 262 245 252 264 276 288 299 303 305 308 310 312 313 315 317 317 319 318 315 311 312 315 316 318 316 316 316 318 318 316 316 315 316 318 317 320 324 324 325 323 325 327
264 250 247 254 260 277 292 300 302 307 311 312 314 313 314 317 319 320 319 318 313 314 316 318 320 317 317 319 322 323 323 321 320 319 321 323 324 326 326 325 328 330 332 336
254 244 249 261 280 293 297 302 308 310 311 313 314 315 318 320 319 320 321 315 314 318 320 320 319 318 320 321 322 323 322 324 322 322 324 328 331 329 326 328 332 338 338 345
246 249 257 277 291 296 302 306 309 311 314 315 316 319 320 320 323 321 316 316 318 319 321 322 320 320 320 319 321 323 323 324 322 325 326 332 332 331 334 330 331 337 339 351
252 266 289 293 297 303 306 309 312 314 315 315 318 320 321 322 326 320 316 320 322 323 325 323 321 321 319 322 326 326 326 324 323 327 330 334 338 336 336 337 339 336 340 344
277 285 290 296 303 305 308 312 312 313 313 318 319 322 324 328 325 319 322 325 325 324 325 324 324 322 323 324 323 329 328 326 328 331 333 337 339 338 342 344 347 348 343 346
278 286 297 302 304 307 311 313 312 314 319 320 322 324 328 332 325 324 327 327 327 327 327 329 329 323 326 324 326 329 329 327 334 337 337 339 339 341 345 345 347 348 344 346
282 296 299 303 306 310 312 312 315 320 319 322 326 328 336 329 326 330 331 329 326 327 328 336 337 333 330 329 334 335 330 327 331 338 338 341 342 344 349 344 342 343 341 347
292 297 300 304 307 311 313 316 319 321 322 326 329 337 337 328 331 334 335 333 329 326 328 333 334 334 331 333 331 335 330 326 329 337 338 342 344 346 352 345 338 337 341 351
295 299 302 304 309 315 317 319 322 323 327 330 334 340 335 332 335 338 339 337 332 327 328 330 335 341 337 330 331 335 332 328 332 336 340 343 345 350 353 348 337 339 344 4
298 300 301 308 313 318 320 321 324 325 329 332 339 343 334 331 336 342 344 340 337 331 326 327 331 336 339 335 330 338 335 334 335 339 342 346 351 352 353 352 343 348 2 7
298 300 306 313 315 319 322 324 326 328 332 335 345 341 334 328 333 338 344 342 340 335 329 328 331 335 336 339 336 338 338 338 340 342 346 352 354 356 1 354 355 14 16 4
299 303 314 315 318 321 323 325 327 332 333 341 347 341 333 330 330 333 338 340 335 330 326 324 323 326 328 327 328 335 343 342 344 348 355 358 357 5 0 3 19 25 16 10
299 310 316 317 321 322 323 326 330 334 335 346 347 340 335 333 331 332 334 335 333 329 323 319 318 319 318 320 329 344 346 347 350 357 2 1 7 7 11 23 32 31 22 15
306 313 317 322 323 321 324 328 331 335 338 348 348 341 337 337 334 334 335 336 334 331 328 328 328 328 324 334 355 356 353 354 359 7 7 7 14 19 30 40 45 34 25 23
310 316 321 324 320 321 325 329 333 336 343 348 347 342 339 339 337 339 339 339 337 337 341 343 349 360 18 32 13 5 0 1 6 12 10 13 24 36 47 58 53 44 43 45
314 317 322 321 317 323 327 330 334 339 346 350 347 343 343 342 341 342 343 343 342 348 355 13 34 44 35 24 19 10 6 9 17 18 15 21 42 51 65 65 66 78 66 52
311 315 321 316 319 323 327 332 335 344 347 350 347 344 344 345 345 346 346 346 349 359 20 31 31 24 20 23 16 13 13 17 22 23 19 29 50 62 76 79 85 84 75 61
Height
5743 5744 5746 5747 5748 5749 5750 5750 5752 5749 5750 5750 5749 5747 5745 5743 5742 5739 5736 5732 5726 5718 5711 5705 5697 5689 5680 5672 5664 5655 5645 5635 5625 5615 5605 5596 5587 5578 5568 5558 5548 5539 5530 5521
5741 5741 5742 5743 5744 5745 5746 5746 5746 5745 5744 5743 5742 5741 5740 5739 5736 5731 5726 5720 5714 5707 5699 5691 5683 5675 5666 5655 5646 5637 5627 5617 5605 5596 5587 5577 5568 5557 5547 5537 5527 5519 5511 5503
5738 5739 5739 5741 5741 5742 5742 5742 5742 5741 5740 5738 5736 5734 5733 5730 5726 5720 5714 5708 5701 5694 5686 5677 5668 5659 5649 5639 5628 5617 5606 5596 5587 5579 5569 5558 5547 5537 5528 5520 5511 5503 5497 5490
5736 5736 5737 5738 5737 5737 5737 5737 5737 5736 5735 5736 5734 5731 5728 5724 5717 5711 5705 5697 5689 5680 5671 5662 5653 5643 5633 5621 5610 5599 5589 5580 5570 5560 5550 5539 5530 5522 5513 5505 5498 5493 5486 5480
5732 5733 5734 5733 5732 5732 5732 5733 5732 5732 5731 5729 5728 5725 5720 5715 5709 5701 5694 5686 5676 5667 5657 5646 5636 5627 5616 5604 5592 5582 5572 5562 5553 5542 5533 5525 5517 5509 5501 5494 5489 5483 5476 5470
5729 5728 5728 5729 5728 5728 5728 5728 5728 5728 5726 5724 5721 5716 5711 5705 5698 5691 5682 5673 5663 5652 5641 5631 5620 5608 5596 5585 5575 5565 5555 5546 5536 5527 5519 5512 5504 5497 5491 5486 5481 5474 5467 5458
5723 5723 5725 5724 5724 5724 5725 5728 5724 5723 5720 5717 5713 5709 5702 5695 5687 5678 5668 5659 5649 5638 5626 5614 5602 5589 5579 5569 5559 5549 5539 5531 5523 5515 5508 5501 5494 5489 5484 5478 5472 5464 5456 5450
5719 5720 5720 5720 5719 5720 5721 5720 5719 5717 5713 5709 5704 5697 5690 5683 5674 5665 5655 5645 5634 5622 5608 5595 5583 5573 5564 5553 5544 5535 5526 5519 5512 5505 5499 5493 5487 5482 5476 5469 5462 5454 5448 5442
5716 5716 5715 5715 5716 5716 5716 5715 5713 5710 5705 5700 5693 5687 5679 5669 5660 5651 5641 5630 5618 5605 5592 5579 5568 5557 5549 5539 5531 5523 5516 5509 5503 5497 5490 5486 5481 5475 5468 5460 5453 5446 5441 5437
5710 5711 5710 5710 5711 5711 5710 5709 5706 5702 5697 5691 5684 5675 5666 5656 5648 5637 5627 5615 5602 5588 5576 5565 5554 5543 5535 5528 5521 5514 5507 5500 5494 5489 5484 5479 5473 5466 5459 5451 5446 5440 5435 5431
5705 5705 5706 5706 5706 5706 5704 5701 5698 5694 5687 5679 5672 5663 5655 5647 5636 5624 5612 5599 5585 5572 5561 5550 5541 5533 5526 5519 5512 5506 5499 5493 5488 5483 5479 5474 5467 5458 5452 5445 5439 5435 5430 5425
5699 5700 5702 5701 5701 5701 5698 5695 5690 5684 5677 5670 5661 5652 5643 5633 5622 5611 5599 5584 5570 5558 5548 5539 5531 5524 5517 5511 5505 5499 5493 5488 5483 5479 5474 5469 5462 5455 5444 5439 5434 5430 5425 5421
5694 5695 5696 5698 5697 5694 5691 5686 5681 5674 5666 5658 5650 5642 5633 5622 5611 5597 5583 5570 5557 5547 5538 5530 5523 5516 5510 5504 5499 5493 5487 5483 5478 5474 5469 5464 5456 5449 5443 5437 5430 5427 5422 5419
5689 5691 5692 5691 5689 5686 5681 5676 5670 5663 5656 5649 5641 5633 5622 5611 5599 5585 5570 5557 5546 5537 5529 5522 5515 5509 5502 5498 5493 5487 5482 5477 5474 5470 5465 5458 5450 5444 5439 5435 5430 5425 5420 5418
5685 5687 5687 5684 5681 5677 5672 5667 5662 5655 5647 5641 5632 5622 5611 5601 5586 5570 5557 5547 5537 5529 5522 5513 5506 5501 5496 5492 5488 5483 5477 5474 5470 5465 5460 5453 5446 5441 5436 5431 5427 5424 5420 5416
5681 5681 5679 5676 5673 5670 5665 5660 5654 5647 5640 5632 5623 5613 5601 5588 5573 5559 5547 5538 5530 5523 5515 5506 5500 5496 5492 5488 5483 5478 5473 5470 5466 5462 5456 5450 5443 5438 5434 5429 5426 5423 5420 5416
5675 5675 5672 5669 5666 5662 5657 5651 5645 5638 5630 5623 5614 5601 5589 5575 5561 5549 5538 5530 5522 5515 5509 5502 5497 5492 5488 5484 5479 5475 5470 5467 5463 5458 5452 5446 5440 5436 5432 5428 5425 5422 5419 5416
5669 5668 5665 5662 5658 5654 5649 5643 5637 5629 5622 5614 5602 5591 5578 5564 5552 5543 5533 5523 5515 5509 5504 5499 5494 5489 5485 5480 5476 5471 5467 5463 5460 5455 5449 5443 5439 5434 5430 5427 5424 5421 5418 5416
5662 5661 5658 5654 5651 5646 5641 5635 5629 5622 5614 5604 5593 5580 5567 5555 5546 5537 5527 5518 5510 5504 5499 5495 5491 5486 5482 5477 5472 5468 5464 5460 5457 5452 5446 5441 5437 5433 5429 5426 5423 5420 5418 5416
5655 5653 5651 5648 5643 5639 5633 5628 5622 5614 5606 5596 5584 5571 5558 5548 5539 5531 5522 5514 5506 5500 5496 5492 5488 5483 5478 5473 5469 5465 5461 5458 5454 5449 5444 5440 5436 5431 5428 5425 5423 5420 5418 5417
5648 5646 5644 5640 5636 5631 5627 5621 5615 5607 5597 5587 5575 5562 5550 5541 5535 5527 5518 5510 5503 5497 5492 5488 5483 5479 5474 5470 5466 5462 5458 5456 5452 5447 5443 5439 5435 5431 5428 5425 5423 5421 5420 5417
5641 5639 5637 5633 5629 5625 5620 5614 5607 5599 5589 5579 5567 5554 5543 5536 5529 5521 5514 5506 5500 5494 5488 5484 5479 5474 5471 5467 5464 5460 5457 5454 5450 5446 5442 5439 5435 5431 5429 5426 5424 5423 5421 5418
5635 5633 5630 5626 5623 5618 5613 5608 5601 5591 5581 5571 5559 5547 5538 5531 5523 5516 5508 5500 5494 5488 5482 5477 5472 5468 5465 5463 5460 5458 5456 5453 5449 5445 5442 5438 5435 5432 5430 5428 5427 5425 5423 5420
5628 5626 5623 5620 5616 5611 5607 5601 5593 5584 5575 5566 5554 5541 5532 5524 5517 5510 5503 5495 5488 5482 5475 5469 5465 5462 5460 5459 5458 5457 5455 5452 5448 5445 5442 5439 5436 5433 5432 5430 5429 5427 5424 5422
5622 5619 5617 5613 5610 5605 5600 5594 5587 5578 5570 5560 5548 5536 5528 5520 5513 5506 5498 5491 5484 5477 5470 5466 5462 5460 5459 5459 5458 5456 5454 5451 5449 5446 5442 5439 5437 5436 5435 5433 5431 5429 5427 5424
5615 5613 5610 5607 5603 5599 5594 5589 5580 5572 5563 5554 5542 5531 5524 5516 5509 5503 5495 5488 5481 5475 5470 5466 5463 5462 5461 5460 5459 5457 5454 5452 5449 5447 5444 5441 5439 5439 5438 5436 5434 5433 5430 5427
5609 5607 5604 5601 5597 5593 5589 5583 5574 5566 5558 5548 5537 5527 5520 5514 5506 5500 5493 5487 5480 5475 5472 5469 5467 5466 5464 5462 5460 5457 5455 5453 5451 5448 5446 5444 5442 5441 5441 5439 5438 5436 5433 5431